Theta_e
331 334 335 333 333 334 331 331 334 334 334 337 338 335 333 331 330 329 329 331 332 334 334 332 331 333 334 333 332 332 332 332 331 331 330 330 330 330 331 330 329 331 332 330 330 331 332 331 332 332 333 334 334 333 334 333 334 335 335 335 335 335 335 334 333 332 332 333 333 333 333 333 332 330 330 331 330 328 327 327 327 327 327 327 327 327
330 332 333 332 331 331 330 329 331 334 334 334 333 332 329 329 329 327 329 332 332 333 332 331 331 332 333 332 332 332 331 331 331 330 330 331 331 331 331 331 331 333 332 331 332 332 332 334 334 333 334 334 334 334 334 334 335 334 334 335 335 334 334 334 333 333 332 333 333 333 334 333 332 330 330 331 331 330 329 328 328 328 327 327 328 327
329 332 331 329 329 329 329 330 329 332 338 338 333 332 329 329 329 325 326 331 330 332 331 329 330 331 332 332 331 331 331 331 329 329 329 330 331 331 331 332 332 334 334 334 334 333 333 334 334 334 335 334 334 335 334 334 334 333 334 335 335 334 334 333 333 333 333 333 333 333 333 333 332 331 331 331 331 331 330 328 328 327 327 328 328 328
326 330 331 327 327 328 328 328 329 332 338 340 335 330 327 330 332 327 329 333 331 331 331 329 330 331 330 330 330 329 329 329 328 328 328 329 330 330 330 331 332 334 334 334 336 335 333 334 335 335 335 335 335 335 334 333 334 334 335 335 335 334 333 333 333 333 333 333 333 332 332 333 334 333 333 332 331 331 331 329 328 328 328 328 329 329
328 330 330 327 326 328 328 327 331 331 334 339 337 330 327 329 332 331 335 343 339 331 329 330 329 329 330 329 329 328 328 328 328 328 328 329 329 330 330 330 332 333 333 333 335 336 334 333 334 335 336 335 335 335 334 333 334 334 335 335 334 334 334 334 334 334 334 333 333 333 333 333 334 334 334 333 332 331 331 330 329 329 329 329 330 331
330 328 326 326 327 327 327 328 330 332 333 335 335 334 331 330 332 332 335 346 343 332 331 331 327 329 333 330 329 329 329 330 329 329 329 330 330 330 330 330 331 332 332 333 334 335 334 333 334 335 336 336 335 335 334 334 334 335 335 334 334 334 335 334 334 334 334 333 334 334 333 334 334 334 334 333 332 332 331 331 331 330 330 330 331 332
331 328 326 326 326 325 327 328 329 332 331 331 334 334 332 332 336 336 335 339 335 331 337 335 331 332 331 329 332 330 330 332 330 330 330 329 330 331 330 330 332 332 333 333 334 334 334 333 334 335 336 336 336 335 335 335 335 335 335 335 335 335 335 334 334 335 334 334 334 334 334 334 334 334 334 333 333 332 332 332 332 332 331 331 331 332
334 330 327 327 326 326 328 328 329 331 330 330 333 331 332 336 339 339 337 340 340 337 341 341 338 335 329 331 336 332 331 333 332 331 330 329 330 331 331 330 331 332 333 333 334 335 334 333 334 334 336 337 336 336 336 335 335 335 335 335 335 335 335 335 335 335 335 335 335 335 334 334 334 334 335 335 334 334 333 333 333 332 332 332 332 332
333 329 328 328 326 324 326 329 329 329 330 333 331 329 334 335 338 340 338 345 348 337 334 340 337 332 337 346 342 333 332 333 333 331 330 330 330 331 331 331 331 331 332 332 333 335 334 333 334 335 336 337 337 337 336 336 335 335 335 335 335 335 335 335 336 336 336 335 335 334 334 334 334 334 335 335 335 335 334 334 334 333 332 333 333 332
327 327 326 325 324 324 326 329 328 329 333 333 329 332 336 335 340 343 340 343 343 333 331 337 334 331 341 351 339 330 332 332 332 332 329 331 330 330 332 331 331 331 331 332 333 333 332 333 335 335 336 337 337 337 336 336 336 336 336 335 335 335 335 335 336 336 335 335 335 334 335 334 334 334 335 336 335 335 335 334 333 332 333 334 334 335
324 325 327 324 324 325 325 327 326 330 333 330 333 336 334 339 348 351 351 345 337 337 335 333 337 335 336 345 338 331 336 334 332 333 331 330 329 330 332 331 331 331 331 332 333 332 332 333 335 335 336 336 337 337 336 336 336 336 336 335 335 335 335 336 336 336 335 335 334 334 334 334 334 335 335 336 336 336 336 335 333 333 334 335 336 336
326 322 327 327 326 323 323 328 329 330 332 332 337 334 328 338 345 344 347 344 336 339 339 332 337 334 331 342 344 338 341 337 331 332 332 331 329 330 331 331 331 331 331 332 333 333 333 335 335 335 335 336 337 337 336 336 337 336 336 336 335 336 336 335 336 335 335 335 335 334 334 334 334 334 335 336 336 336 336 335 335 335 335 336 337 337
328 324 326 326 326 322 322 328 328 329 332 331 334 334 331 335 335 334 338 341 337 338 339 337 335 331 332 340 341 339 341 336 331 331 331 329 329 330 330 330 331 331 331 332 333 333 335 336 335 334 335 335 336 337 336 336 337 336 336 336 335 336 336 335 336 336 335 335 335 335 335 334 334 334 335 336 336 336 336 335 336 336 336 336 337 337
326 331 331 326 326 323 323 327 325 327 330 327 329 332 335 336 332 332 336 337 335 333 336 337 332 332 334 334 337 338 336 334 332 330 330 329 330 330 330 330 331 331 331 331 332 334 335 336 335 334 334 335 335 336 336 337 337 336 336 336 335 336 335 335 337 336 335 336 335 335 335 333 334 334 335 335 335 335 335 335 336 336 336 336 337 337
321 328 334 327 325 323 322 325 325 329 329 327 332 332 334 339 337 337 338 336 336 335 335 331 327 334 333 330 337 335 330 333 331 329 330 329 329 329 329 330 331 331 331 331 333 334 335 334 334 334 334 335 335 335 336 336 337 336 336 336 335 335 335 336 337 336 335 336 336 335 334 333 334 335 335 335 335 335 336 336 336 336 337 337 337 337
315 320 334 329 325 323 322 325 326 328 328 329 332 326 326 335 341 340 337 341 341 335 335 332 330 339 336 330 336 330 329 334 329 330 332 329 329 328 329 330 331 331 332 332 334 335 335 334 333 334 333 334 335 335 336 336 336 336 336 335 335 335 336 336 336 336 335 336 336 335 335 334 334 334 335 335 335 335 336 336 337 336 337 337 336 337
316 322 337 329 326 327 323 324 325 324 329 333 327 323 327 333 339 335 328 338 342 331 333 335 334 341 337 331 335 329 330 334 329 331 331 329 329 328 329 331 330 332 333 334 335 335 335 334 333 334 334 334 334 335 335 336 336 335 335 335 335 336 336 336 337 336 335 336 335 334 335 335 335 334 334 335 335 336 336 336 337 337 336 337 337 337
323 323 335 329 322 327 324 324 328 327 331 334 325 326 331 327 335 340 329 333 335 328 334 337 334 338 331 327 334 331 331 333 330 332 330 328 330 328 330 331 330 333 333 334 336 335 335 334 332 334 334 334 334 335 335 335 336 335 336 336 335 336 336 335 337 337 335 336 336 335 335 335 335 334 333 335 335 335 336 336 337 337 336 337 337 336
326 320 333 335 322 325 329 324 324 326 327 330 328 329 332 325 327 332 327 329 330 327 334 335 331 335 331 330 333 329 330 332 330 332 329 327 329 329 330 332 331 334 335 335 336 336 336 333 332 334 334 333 334 334 335 336 336 336 336 336 335 336 336 335 336 337 336 336 336 336 335 334 335 335 334 335 336 335 335 336 337 337 336 336 337 336
331 320 325 336 326 325 337 328 321 326 325 323 328 326 332 338 335 328 324 330 335 332 332 331 328 333 341 343 340 333 335 337 332 331 329 326 329 330 330 331 332 334 336 334 335 336 336 333 333 334 334 333 333 334 335 335 336 337 336 336 336 336 336 336 336 337 336 336 336 336 336 335 335 336 335 335 337 337 336 337 338 336 335 335 336 337
332 320 322 338 331 323 334 330 324 332 326 320 326 322 323 333 331 327 324 327 338 340 338 334 327 335 351 349 341 338 338 336 333 331 329 326 328 330 330 330 332 334 335 334 334 336 336 333 333 335 334 333 333 334 335 335 336 337 336 336 337 336 336 336 336 337 337 336 337 337 337 336 335 335 336 335 337 338 338 338 338 336 335 336 336 336
327 326 332 337 324 321 333 331 325 333 328 328 331 325 328 330 325 328 327 326 336 339 339 338 327 335 354 344 335 338 336 334 332 329 327 327 327 329 329 329 332 334 335 335 335 336 335 334 333 335 335 334 333 334 335 335 335 336 337 336 336 336 336 337 337 337 337 336 337 336 337 337 335 335 336 335 336 338 338 338 337 336 336 336 336 336
341 347 338 326 321 325 329 326 326 326 327 337 338 335 343 340 334 338 332 327 331 329 335 341 331 336 353 343 334 338 336 334 332 329 328 327 327 329 329 329 332 334 335 335 335 336 335 333 334 335 335 334 333 334 335 335 335 336 336 336 337 336 336 336 337 337 337 337 336 336 337 337 336 336 336 336 337 337 337 337 337 336 336 336 336 336
347 343 327 328 343 345 331 329 335 334 335 340 338 344 347 336 340 352 344 337 336 327 329 335 329 334 351 346 339 341 340 339 334 329 330 330 331 330 328 330 332 333 335 335 336 337 335 333 335 336 335 335 334 334 335 336 335 335 336 336 336 337 337 337 337 337 337 337 337 336 337 337 336 336 337 337 337 337 337 337 337 336 336 336 335 335
331 331 334 340 346 343 339 337 332 330 338 339 337 345 349 342 345 347 342 345 340 325 329 338 330 334 351 347 340 341 340 338 336 331 330 335 337 332 330 332 333 333 336 336 336 338 337 335 336 336 335 336 335 334 335 335 335 336 335 335 336 337 337 337 337 337 337 337 337 337 337 337 336 336 336 337 337 336 336 337 338 336 336 337 336 335
329 339 356 351 337 330 332 332 327 327 332 338 342 345 345 343 339 331 333 343 339 324 331 344 335 333 348 346 337 341 341 336 337 337 333 335 337 335 334 333 334 335 336 336 337 337 338 337 336 336 336 336 336 335 335 336 336 336 335 335 336 336 337 337 337 337 337 337 337 337 337 337 336 335 336 336 336 336 336 336 337 337 337 337 336 336
347 350 361 360 347 340 339 339 339 335 329 330 336 337 338 343 346 343 336 338 340 330 330 344 339 327 337 343 335 341 348 339 337 341 338 336 334 335 336 334 334 336 335 336 337 336 337 337 336 336 335 336 337 336 336 336 336 336 336 336 336 336 336 337 337 337 337 337 337 337 337 337 336 335 336 336 336 336 336 337 337 336 336 337 337 337
363 344 341 350 346 342 344 343 338 333 327 327 330 332 337 345 348 345 335 334 343 336 330 346 348 326 329 342 335 337 345 340 337 343 346 344 337 334 335 334 334 335 335 335 336 336 337 337 337 337 335 335 336 336 336 336 336 336 337 337 336 336 336 337 337 338 337 337 337 336 337 337 337 336 335 336 336 336 336 336 337 337 336 337 337 337
362 339 331 335 334 333 335 333 335 339 337 337 339 335 336 342 337 332 336 345 350 340 335 347 346 329 331 341 336 335 345 346 345 346 348 347 344 338 336 336 335 335 335 335 336 336 336 335 337 337 334 334 335 336 336 336 337 336 337 337 337 337 337 337 337 337 337 337 337 337 336 337 337 337 336 336 336 336 336 336 337 337 336 337 337 337
350 338 334 337 337 335 331 327 333 341 340 342 345 342 344 347 338 331 340 348 347 344 348 352 343 333 335 338 336 337 342 345 349 350 345 343 342 339 337 338 336 334 335 336 336 336 335 335 337 335 333 333 333 334 336 336 337 337 337 337 337 337 337 337 337 337 337 337 337 337 337 337 337 337 337 336 335 336 337 337 336 337 337 337 337 337
341 336 340 350 348 338 333 333 335 341 345 344 344 347 351 349 341 344 351 348 340 338 345 352 349 342 340 339 338 339 340 342 345 346 345 342 341 339 337 336 334 333 335 336 336 336 335 335 336 335 333 332 331 333 335 336 336 336 337 337 337 337 337 337 337 337 337 337 337 337 337 336 337 337 337 337 336 335 337 337 337 337 338 338 337 337
346 340 343 353 348 337 333 333 338 349 353 349 346 347 349 346 341 345 348 344 340 338 343 353 354 348 344 340 339 341 341 341 341 340 342 341 341 343 342 338 336 335 335 336 335 335 335 335 336 336 333 331 331 331 333 335 336 336 336 337 337 337 337 337 338 337 337 338 337 337 337 337 337 337 337 338 337 336 337 337 338 338 338 338 337 335
350 349 344 345 342 335 334 336 346 355 349 341 342 341 341 344 342 341 342 339 338 343 347 348 345 343 341 339 341 343 341 339 338 337 338 339 340 341 341 340 340 340 341 343 341 338 336 335 335 335 333 331 331 331 331 334 336 336 336 336 336 337 337 337 337 337 337 337 337 337 337 337 337 337 337 337 337 337 338 338 338 339 338 338 337 334
353 354 346 345 339 332 339 349 350 348 337 330 337 341 340 342 341 340 341 338 337 340 341 340 338 338 338 338 341 343 339 337 336 334 334 336 337 338 338 339 340 341 344 347 345 341 338 334 331 332 333 333 332 331 331 333 335 336 335 336 336 336 336 336 337 337 337 337 336 337 337 336 337 337 337 337 337 338 338 338 339 339 338 337 335 331
352 348 341 347 345 334 342 349 338 332 334 335 337 337 337 338 337 337 337 336 336 337 337 337 337 336 337 337 337 339 339 337 334 333 334 333 333 336 337 337 338 340 341 344 344 343 341 336 333 331 331 332 332 333 332 331 333 335 335 335 335 335 336 336 336 336 336 336 336 336 336 336 337 337 337 337 337 338 338 338 339 339 338 337 334 330
347 346 338 340 339 332 335 338 330 329 336 343 343 336 334 337 337 337 338 336 335 335 335 337 336 335 336 336 334 338 341 339 335 333 333 332 332 334 334 334 335 336 337 339 341 342 340 338 337 336 333 333 332 332 332 332 332 333 333 334 335 335 335 335 336 336 336 336 336 335 336 336 336 337 337 336 337 337 338 338 339 339 338 336 333 329
339 346 340 332 331 336 337 333 333 335 338 344 347 336 330 331 333 336 340 337 334 334 334 333 333 334 335 334 336 339 340 340 338 335 333 332 332 333 333 332 332 332 333 333 334 336 336 336 338 338 336 335 331 329 331 331 331 332 332 333 333 334 335 335 335 336 336 335 335 335 335 336 336 336 336 336 337 337 337 338 339 338 337 334 330 326
333 339 338 329 330 341 343 335 333 339 341 342 338 328 323 325 327 331 338 337 333 333 333 331 330 332 334 335 335 338 343 346 343 337 334 332 332 332 332 331 330 330 331 331 331 332 334 335 336 336 335 335 334 332 331 331 331 332 332 332 333 333 334 334 334 335 335 335 335 335 335 335 335 335 335 336 336 337 337 338 338 338 336 334 329 324
334 336 339 336 333 336 339 336 336 340 340 335 327 320 320 322 322 328 339 339 332 330 331 330 329 329 333 335 333 336 344 347 341 336 334 333 332 331 330 329 328 327 327 329 330 330 332 334 334 334 334 334 334 335 334 334 332 331 331 331 331 332 333 333 334 334 335 335 335 335 335 335 335 335 335 335 336 336 337 337 338 337 335 332 328 323
342 340 341 341 339 338 339 339 337 339 336 327 321 319 319 320 323 333 344 338 330 328 328 329 328 327 330 333 333 335 339 340 336 335 334 332 330 329 327 326 326 325 325 326 328 329 331 333 333 333 333 332 332 333 334 334 332 331 331 330 330 331 332 332 333 334 335 335 335 335 335 335 335 335 335 335 336 336 337 337 337 336 332 328 325 321
337 336 335 337 340 341 345 341 335 336 332 322 318 319 318 322 331 340 340 332 328 328 326 325 327 327 327 330 332 333 334 335 334 333 332 330 329 328 326 324 323 322 323 324 325 328 330 331 332 333 333 332 332 332 332 333 332 331 330 331 330 330 331 332 332 332 332 334 335 335 335 335 335 335 335 335 335 335 336 337 336 335 331 326 321 318
333 330 329 334 336 335 340 337 332 333 328 318 317 318 320 330 340 335 329 326 325 324 323 323 324 325 326 327 328 330 331 332 332 332 331 330 330 328 326 324 323 322 321 321 323 325 329 330 330 331 332 332 332 332 332 332 332 331 331 331 331 331 332 333 332 331 331 333 334 335 335 335 335 334 334 335 335 335 336 336 335 333 329 323 319 315
332 329 328 330 330 330 335 336 333 333 325 316 319 323 324 331 332 323 320 323 321 318 320 321 322 324 326 326 326 327 327 328 329 329 329 329 329 328 325 324 324 322 321 321 321 323 326 329 329 329 331 331 332 332 332 331 330 330 331 331 331 332 333 333 333 332 331 331 332 334 334 334 335 334 334 334 334 334 335 334 331 328 324 320 316 312
329 330 331 330 327 330 337 335 329 326 321 317 321 325 322 322 321 318 319 320 318 317 318 319 321 323 325 327 328 327 327 328 328 328 328 329 329 328 326 324 323 323 322 322 322 322 325 327 327 328 329 330 331 331 331 331 330 330 330 330 330 331 332 333 333 333 332 331 331 332 333 334 334 333 333 333 333 334 333 331 327 323 319 316 312 309
329 328 329 327 323 325 329 326 321 321 321 319 321 322 319 319 319 319 320 320 320 320 320 319 321 322 322 324 328 329 329 330 329 327 330 332 330 329 327 325 324 324 324 323 323 324 325 326 327 327 327 327 329 329 328 330 331 330 331 331 330 331 331 331 332 333 332 333 332 332 331 331 331 331 331 330 330 329 327 325 322 319 316 313 311 311
327 324 325 326 323 323 323 322 321 323 321 320 322 321 320 320 319 319 320 321 323 323 321 321 322 322 321 321 323 324 327 328 329 328 330 331 331 330 328 326 326 326 325 324 325 325 326 327 327 327 326 325 327 326 324 326 330 329 330 331 331 331 331 330 331 331 331 332 332 331 331 330 330 330 329 328 327 326 324 323 320 317 314 313 313 313
326 325 326 326 324 324 324 323 325 326 322 320 322 320 319 320 321 321 322 322 323 324 323 323 323 323 322 321 320 322 324 325 327 328 328 328 330 331 328 326 326 326 325 325 326 326 327 327 327 328 327 325 327 325 320 322 328 329 328 328 329 329 329 329 329 329 329 330 330 330 330 330 330 330 328 327 327 326 325 324 321 317 315 314 314 313
327 326 327 326 324 325 325 323 325 324 321 320 322 321 319 321 322 323 323 323 323 324 323 321 320 322 323 322 320 321 322 322 324 325 325 327 329 329 326 324 324 325 326 326 326 326 327 327 327 328 328 327 328 328 323 320 325 328 328 328 327 327 327 327 328 327 328 329 329 328 329 330 329 328 326 324 324 324 322 321 319 318 317 316 316 315
326 326 325 325 323 323 323 322 321 321 319 319 322 323 324 324 323 324 325 325 324 325 325 323 320 319 322 323 322 322 322 322 323 323 323 325 325 324 322 321 321 322 323 324 326 326 325 324 324 325 326 325 325 328 327 323 323 325 327 327 327 326 326 327 327 327 327 328 328 327 327 328 328 327 325 323 322 321 320 319 318 318 317 318 318 318
325 323 323 324 323 323 324 323 322 321 319 320 323 325 327 326 325 325 326 327 327 327 328 327 324 320 319 319 319 321 322 321 320 320 319 320 319 317 317 317 318 319 319 320 322 321 320 321 321 321 322 321 321 324 327 328 326 325 326 326 326 325 325 326 326 327 327 327 327 327 327 327 327 326 325 324 322 321 320 319 318 317 317 317 316 317
323 322 324 327 325 323 322 322 324 324 320 320 324 327 327 327 326 325 324 325 327 327 326 327 327 324 320 315 313 316 319 317 315 316 317 316 314 313 314 314 315 316 317 317 318 318 318 320 321 320 320 320 319 321 324 328 329 328 328 328 326 326 326 326 325 327 328 328 328 327 327 326 326 325 324 322 321 320 319 318 318 317 317 317 316 316
Wind_Speed
5 2 2 5 7 9 9 10 11 8 6 5 4 4 5 6 5 6 8 9 13 8 7 10 7 8 11 11 12 11 11 10 9 9 8 7 8 8 9 9 9 8 7 11 18 23 24 22 23 24 23 20 18 17 17 17 16 15 14 13 10 9 9 9 11 12 11 11 10 10 11 11 11 11 12 14 12 11 12 14 14 15 16 16 16 16
5 4 8 10 13 11 9 11 11 7 6 6 5 4 4 5 6 5 7 10 12 6 6 10 9 9 12 12 12 11 11 11 10 10 9 9 9 7 9 9 8 6 6 9 14 18 21 22 23 25 23 21 20 19 18 18 18 16 14 13 10 8 9 10 12 12 11 11 11 11 11 11 11 12 12 14 12 10 11 12 13 13 13 13 14 14
3 5 12 15 12 9 6 9 11 8 5 6 3 1 4 3 3 1 6 9 11 4 4 11 10 9 12 12 11 12 12 12 11 12 11 10 9 8 9 8 8 7 7 9 10 13 19 22 23 24 24 23 21 20 19 18 18 16 14 13 10 10 11 12 12 11 12 13 13 12 12 12 14 14 14 13 13 13 12 12 13 14 14 13 13 13
4 7 13 12 7 6 6 6 11 8 3 3 1 1 4 3 2 4 4 3 5 3 7 11 8 6 8 8 9 12 13 11 12 13 11 11 11 11 11 9 10 11 10 10 9 11 15 19 21 22 23 23 22 21 19 19 18 16 15 14 11 12 12 12 12 12 13 14 13 13 13 13 14 15 13 12 13 14 14 13 13 13 14 14 15 14
8 11 9 7 4 7 5 3 9 7 2 4 1 2 2 4 6 4 2 1 2 1 7 9 5 3 6 7 8 9 10 10 11 13 11 10 10 10 11 11 12 14 13 12 11 10 12 16 19 22 24 23 23 22 21 19 19 17 16 15 13 13 12 12 12 13 14 14 14 14 14 13 13 12 11 10 11 12 13 14 13 12 12 13 15 15
10 11 4 6 6 6 5 4 9 9 4 3 1 4 5 7 10 6 4 2 4 4 3 6 5 3 5 7 9 7 8 9 9 11 12 11 9 9 10 10 12 13 12 13 13 12 12 15 17 20 23 23 23 23 22 19 18 18 16 14 14 14 12 12 12 13 14 14 14 13 13 13 13 12 10 10 9 10 12 12 11 10 10 11 13 14
7 6 3 6 5 3 4 6 11 11 6 2 2 5 5 10 11 7 5 3 3 1 3 3 5 3 4 6 9 7 7 8 8 11 13 11 8 8 10 10 10 11 10 10 11 11 12 15 16 17 21 24 24 24 22 19 18 18 16 14 15 14 13 13 13 14 15 15 13 12 13 13 14 13 12 11 10 11 11 10 10 10 10 11 12 12
6 5 4 5 2 2 4 6 10 11 8 3 6 8 8 14 9 3 4 2 2 2 3 1 3 3 3 6 8 7 8 7 7 10 12 11 9 10 11 11 12 12 11 10 10 11 11 15 17 18 22 25 25 24 23 21 19 18 17 16 16 15 14 14 14 14 14 13 12 12 12 13 12 13 13 12 12 11 10 10 9 10 11 11 10 11
4 3 6 6 3 3 4 6 10 10 6 5 9 9 8 15 10 5 4 3 1 2 3 4 2 3 3 5 3 5 8 8 9 11 12 11 11 11 12 13 13 13 13 12 12 12 12 16 20 21 24 25 26 25 24 23 21 19 18 17 16 16 15 14 14 13 12 11 12 12 12 12 12 12 13 12 12 11 10 10 10 10 11 10 10 11
4 5 8 6 4 5 5 9 14 11 3 4 8 3 6 10 7 3 4 3 3 3 3 5 1 3 4 5 1 5 7 9 9 10 10 11 12 12 13 13 13 12 11 12 12 12 14 19 22 23 24 24 25 26 24 23 22 21 19 18 17 17 16 15 14 13 13 13 13 13 13 14 14 14 13 12 11 11 11 11 11 11 11 10 11 11
6 5 5 5 4 5 6 9 10 10 9 9 7 7 8 5 4 4 2 3 4 2 5 6 4 5 1 5 3 5 6 8 9 7 7 9 11 12 12 12 12 12 10 10 10 10 14 19 21 22 23 23 24 25 25 24 23 23 21 19 18 18 17 16 15 14 15 15 14 14 14 15 15 15 14 13 12 12 12 12 11 11 11 11 10 10
7 6 4 4 4 4 8 7 4 6 10 9 5 5 5 3 5 4 4 4 3 3 6 4 4 6 1 5 4 5 6 7 11 10 9 10 11 11 12 12 12 12 11 10 9 9 10 12 15 19 21 21 23 24 25 24 24 24 23 20 19 19 18 17 16 16 17 16 14 13 14 15 16 16 15 14 13 13 12 11 12 11 11 10 9 8
6 5 5 5 3 5 10 7 5 4 4 6 5 5 5 2 3 2 2 1 1 4 4 1 3 3 3 6 6 7 7 7 10 11 11 13 12 11 12 12 11 10 11 11 10 9 9 9 13 17 19 20 22 24 25 25 25 26 24 21 20 20 20 19 17 17 17 16 13 12 14 16 16 15 15 14 14 13 12 12 12 11 10 9 8 7
5 7 5 4 3 3 10 9 4 0 1 6 7 5 4 3 2 1 3 1 1 4 2 2 1 1 4 5 6 9 10 9 9 9 11 14 13 13 13 12 11 11 11 11 10 10 10 10 14 18 19 21 23 25 25 25 26 26 25 23 21 20 21 20 18 18 17 16 12 12 16 17 15 15 15 15 14 13 12 12 12 11 10 9 8 8
1 5 4 2 2 0 5 9 11 9 6 4 4 5 4 4 4 3 3 2 3 4 2 3 1 2 1 3 6 8 9 9 8 7 9 11 12 12 11 11 12 11 11 10 10 11 11 13 17 19 20 22 24 25 25 25 27 27 26 24 22 21 22 20 19 19 18 16 13 12 16 17 15 16 16 15 14 14 13 12 11 10 9 9 8 7
1 4 7 5 3 2 2 4 8 8 3 2 1 5 2 3 5 3 3 5 3 1 2 2 1 3 3 5 6 2 6 7 7 7 7 8 9 10 10 10 11 11 10 10 10 10 11 14 19 20 21 23 25 26 25 26 27 27 27 26 24 23 23 21 20 20 18 16 14 14 16 16 16 17 17 16 14 14 13 11 10 9 9 9 8 6
1 4 7 5 3 4 5 5 8 8 3 1 1 3 3 3 7 4 1 1 3 2 2 2 2 4 3 5 6 4 8 6 6 7 8 8 10 11 11 10 11 11 11 11 11 11 11 14 18 20 22 24 26 27 27 27 28 28 28 27 26 24 24 23 21 20 19 17 16 17 16 15 16 19 18 17 15 14 13 12 11 10 10 10 8 6
3 3 6 4 6 6 2 6 5 5 6 5 2 4 2 2 4 5 2 3 4 1 3 2 3 4 2 3 4 5 7 6 6 6 7 9 11 12 11 11 12 12 12 12 12 12 12 14 18 21 23 26 28 29 29 30 30 29 28 28 27 26 26 25 23 22 21 19 19 19 18 15 17 20 19 17 16 16 14 14 13 13 11 10 8 8
4 2 7 4 5 7 3 7 3 4 2 4 4 5 4 2 1 2 2 1 2 1 3 4 3 3 2 3 2 4 4 6 6 6 8 11 12 12 11 12 12 11 11 11 11 12 11 14 18 22 24 26 29 30 31 31 31 30 29 29 28 27 27 26 24 23 22 21 21 20 19 18 18 20 19 17 17 16 16 15 15 14 12 10 10 9
4 2 4 5 3 3 5 4 1 4 3 4 3 4 2 3 4 2 2 2 3 3 1 2 3 3 4 4 3 4 4 6 7 7 9 11 12 12 12 11 11 11 11 11 12 12 12 15 20 24 26 28 29 30 30 31 31 31 30 30 30 28 27 27 26 25 24 23 22 21 21 20 20 20 19 18 18 16 17 17 15 14 13 12 11 10
2 3 3 5 3 2 2 2 3 6 2 2 3 3 1 2 2 2 1 1 3 4 2 1 1 5 5 4 5 5 5 6 8 9 10 11 12 13 13 13 12 12 12 12 12 12 12 15 20 25 27 29 28 28 30 31 31 31 31 30 31 29 29 28 27 27 26 25 24 24 23 22 22 21 20 20 20 18 18 18 16 15 14 13 12 12
2 2 3 3 3 1 2 4 3 3 5 5 4 3 2 3 4 4 0 2 2 4 3 4 2 6 5 2 2 3 5 7 7 8 9 10 13 13 14 15 14 13 13 12 12 12 11 13 18 23 26 28 28 27 29 31 31 31 31 31 31 31 30 30 30 29 28 27 26 26 25 24 24 23 21 21 22 20 18 18 17 16 15 13 13 13
3 4 3 2 3 3 2 2 4 3 4 6 3 3 3 3 4 5 3 2 2 3 1 3 2 5 6 3 2 2 0 5 8 7 5 6 10 13 13 14 15 14 14 13 12 12 11 14 19 22 24 27 28 28 29 31 32 32 33 32 32 32 32 31 31 30 29 28 28 28 27 26 26 26 24 23 24 22 20 19 19 18 16 15 14 14
2 4 3 2 4 3 3 4 6 6 6 6 3 2 4 3 3 5 5 3 3 1 1 3 1 4 6 4 2 3 5 2 4 7 7 5 6 9 11 12 12 12 12 12 12 10 10 13 17 18 20 23 26 27 28 31 32 32 33 33 32 33 33 32 32 31 30 29 29 28 28 27 27 27 26 26 26 24 21 20 20 19 17 16 16 15
1 1 2 3 4 5 6 6 6 7 5 3 3 3 3 4 5 4 2 3 3 1 3 5 2 5 5 5 5 5 4 2 2 4 9 9 6 7 9 10 10 10 10 11 11 10 10 12 13 15 19 22 24 25 27 28 31 32 33 34 33 33 34 33 33 32 31 31 30 29 29 29 28 28 28 28 27 25 23 22 21 20 18 18 18 17
2 2 4 5 2 1 1 1 2 2 1 2 4 4 3 6 5 3 2 4 2 1 3 5 4 4 5 6 5 6 5 4 4 3 2 6 7 8 8 9 10 10 11 12 12 11 11 12 12 14 19 21 23 24 25 26 28 30 32 34 34 34 34 34 34 33 33 32 31 31 30 30 30 30 30 30 29 27 25 24 23 21 20 20 20 19
4 2 2 6 5 5 5 4 3 2 2 1 4 4 2 4 5 6 4 2 3 3 1 3 4 1 6 7 5 6 6 5 4 3 3 3 6 10 9 9 10 10 12 13 12 11 11 11 12 13 18 21 23 24 26 27 27 27 29 31 32 33 33 34 34 34 34 33 33 32 32 32 31 31 31 30 29 29 27 25 24 23 22 22 22 20
5 4 2 4 3 4 6 3 1 2 3 2 3 2 4 4 5 7 3 3 5 6 2 7 3 4 4 7 6 6 3 3 1 1 0 1 4 7 6 6 9 11 11 11 11 11 12 12 12 13 16 20 22 23 25 27 28 29 29 31 32 33 33 33 34 33 33 33 33 34 34 34 33 32 32 30 29 30 29 27 26 24 23 24 23 23
6 2 1 3 2 1 1 3 4 4 3 2 4 3 2 1 1 1 5 5 6 6 4 7 4 6 4 8 9 6 3 3 3 4 3 3 5 7 7 5 7 9 10 11 11 12 12 13 12 12 16 20 22 23 24 26 28 30 30 32 33 34 34 34 34 34 33 33 34 35 36 35 34 34 34 32 30 30 30 29 27 25 24 25 25 25
5 0 2 2 3 3 4 6 6 6 5 4 5 5 2 1 3 3 2 3 5 5 4 6 9 7 4 7 10 9 6 4 3 3 2 2 3 7 10 9 9 10 11 12 12 12 13 13 13 13 16 19 21 23 24 26 28 30 31 33 33 34 35 35 34 34 33 34 35 36 35 35 34 34 35 35 33 32 31 30 29 27 26 27 27 28
4 1 4 2 4 6 5 6 7 6 7 6 7 9 9 6 3 3 4 3 2 2 3 6 8 5 5 6 8 7 6 8 10 10 9 6 5 3 4 5 7 9 11 13 13 13 12 12 12 12 13 18 23 25 26 28 30 31 32 33 34 36 36 36 35 35 35 35 36 35 34 34 34 34 34 35 35 34 33 31 30 28 27 28 29 30
3 1 2 5 5 5 5 5 5 4 8 8 8 10 11 7 5 5 6 7 4 1 4 8 6 2 6 8 7 8 11 14 14 13 11 9 10 10 8 6 4 2 4 5 7 9 10 11 12 12 15 20 24 26 28 30 30 31 32 33 35 36 36 36 36 36 36 36 35 34 34 34 34 33 33 34 34 34 34 32 31 29 28 29 30 31
2 3 1 3 3 3 5 2 3 4 7 5 6 8 7 1 6 7 9 11 9 3 4 5 1 3 5 6 6 9 12 13 12 11 10 9 11 11 10 9 9 9 8 7 6 6 5 8 10 14 19 24 26 29 32 34 32 32 35 36 36 35 34 35 36 36 37 37 35 35 36 35 34 34 34 34 34 33 33 32 31 31 30 30 32 33
2 4 3 2 4 3 6 3 5 5 3 1 4 6 3 7 12 11 10 11 11 7 4 3 2 4 5 4 4 5 7 9 9 8 9 9 9 10 10 10 9 9 9 7 6 7 6 7 9 15 20 24 27 30 32 33 35 37 38 37 35 33 34 35 36 36 36 36 36 36 36 35 34 34 34 34 33 33 32 32 32 31 31 32 33 34
2 4 2 1 4 3 3 5 6 1 3 5 1 5 7 11 14 13 11 12 13 11 8 5 5 7 7 5 3 2 2 6 8 11 12 11 9 8 9 9 9 8 7 6 5 5 5 6 6 13 19 22 25 27 28 30 34 36 35 34 33 33 34 35 35 35 35 35 35 36 36 35 35 34 34 33 33 32 32 32 32 31 32 33 35 37
5 4 2 2 2 1 1 4 2 4 3 2 1 4 6 6 6 7 10 12 13 11 9 7 7 8 8 6 5 3 4 4 7 11 12 12 11 9 8 7 8 8 6 6 6 5 6 7 5 4 11 19 24 24 25 30 34 33 32 32 33 34 34 33 33 33 34 34 35 35 35 36 35 34 34 33 32 33 33 33 32 32 33 35 37 38
5 4 2 2 1 2 3 2 1 2 1 3 2 3 4 3 4 2 4 6 9 9 8 8 8 9 9 8 7 4 4 3 7 9 10 11 11 9 8 8 8 9 9 11 12 11 11 11 12 12 6 8 18 19 20 25 30 31 31 30 31 32 32 31 31 33 33 34 35 37 37 36 35 35 34 33 33 34 34 34 33 33 35 37 38 38
3 4 4 4 2 2 5 2 1 2 2 3 3 5 4 4 5 2 4 3 7 8 7 7 8 10 10 10 10 6 0 5 6 5 6 9 9 8 8 8 9 12 14 18 20 21 20 20 19 22 22 13 5 7 12 19 24 28 29 29 30 30 28 28 30 32 34 35 36 37 37 37 36 36 35 35 35 36 36 35 35 36 37 40 40 38
6 2 3 4 2 2 5 4 3 3 4 3 4 8 9 6 5 2 3 3 6 7 7 6 7 9 9 9 10 7 3 4 1 3 5 7 6 6 7 8 10 15 18 21 24 24 23 22 24 27 29 27 24 20 11 8 15 19 21 23 27 28 28 31 33 34 35 37 38 38 37 37 37 37 37 37 38 38 38 36 36 37 39 41 41 39
7 5 4 4 3 3 4 3 2 2 2 3 5 9 11 8 2 3 3 1 5 6 6 5 7 8 9 8 8 6 6 4 1 3 6 6 5 7 9 9 10 13 17 21 26 26 22 22 25 27 26 24 24 26 23 15 7 4 2 2 5 8 12 20 29 35 38 38 37 38 39 39 39 39 38 39 40 40 39 38 37 38 40 40 39 39
4 4 2 4 3 2 4 4 0 1 2 4 6 9 10 6 2 4 4 3 3 4 4 5 6 6 7 8 7 6 6 4 2 4 6 6 6 9 11 12 11 15 18 20 25 27 23 22 23 23 23 23 22 22 23 22 22 21 19 18 16 16 17 14 14 22 31 36 37 38 39 40 40 40 40 41 41 39 38 38 38 40 42 41 39 38
2 3 3 2 2 2 3 4 1 1 2 5 7 9 6 2 2 3 3 2 2 4 4 5 6 5 6 7 6 5 6 5 4 4 5 6 7 6 8 11 13 17 20 22 26 28 24 21 22 22 23 26 26 22 19 17 18 18 18 19 18 15 15 16 16 15 16 24 31 36 39 40 40 41 41 41 40 38 38 39 40 42 43 42 39 37
1 1 1 1 1 1 2 3 2 2 3 7 7 5 3 3 3 4 1 1 2 4 4 4 5 5 5 5 5 5 6 7 7 7 6 6 6 5 5 7 10 13 17 19 23 25 23 21 22 22 21 24 26 25 20 16 15 14 13 14 14 13 11 10 11 13 15 17 22 28 32 35 38 39 38 37 37 37 36 36 36 37 38 38 37 34
1 2 2 1 1 2 2 1 2 4 4 7 5 3 2 2 1 0 1 1 2 3 3 3 4 5 5 4 4 4 4 5 7 7 7 7 7 6 5 6 8 12 14 15 17 20 21 19 19 21 21 22 25 25 22 19 17 15 12 11 12 13 13 11 7 3 4 11 17 21 22 24 27 30 31 32 33 33 32 32 32 32 30 28 29 31
1 2 4 2 1 1 3 3 3 3 3 5 4 4 3 3 4 3 2 2 1 2 2 2 4 5 5 3 2 2 2 3 4 5 6 7 7 6 6 8 9 11 12 13 15 18 18 16 17 19 20 21 23 24 24 21 18 16 14 13 14 12 9 9 7 4 4 1 8 13 12 10 10 11 12 15 19 23 25 27 29 28 27 27 30 33
2 4 4 3 2 3 4 2 1 1 1 2 2 2 2 3 2 2 2 1 1 2 2 2 2 3 4 3 2 2 3 4 4 5 6 6 7 7 8 10 11 13 13 14 16 18 17 15 16 17 18 20 22 22 23 22 20 18 17 17 15 13 11 9 8 6 1 2 1 5 6 4 5 6 6 8 13 18 21 25 27 28 29 31 32 32
1 3 4 3 3 2 2 1 2 1 1 1 1 0 0 1 2 1 2 2 3 3 4 4 4 4 4 4 3 3 5 5 4 5 5 5 7 8 8 8 12 15 16 15 16 18 18 17 16 15 15 17 19 19 20 18 16 16 16 17 18 16 11 7 6 6 5 2 5 7 7 7 8 10 13 15 18 22 25 28 31 31 30 30 29 27
0 2 3 3 2 2 2 2 1 1 1 2 1 1 1 2 3 3 3 3 4 4 4 5 5 4 4 4 4 5 6 7 7 6 6 5 6 7 8 10 12 15 17 17 17 18 19 19 18 17 16 16 16 17 18 15 12 11 13 13 13 14 13 11 7 5 4 4 6 9 10 10 12 14 18 20 22 25 27 29 31 32 32 33 34 32
1 2 2 3 4 4 3 1 2 4 4 5 4 3 4 3 4 4 4 3 4 4 4 4 4 4 4 5 5 5 7 8 7 7 8 7 7 7 9 13 15 16 18 18 17 18 19 18 18 19 19 21 21 19 16 13 10 8 8 9 9 10 10 9 9 8 7 4 5 7 9 11 12 13 17 20 21 22 23 24 26 28 29 31 33 35
3 3 2 3 5 2 1 3 3 4 1 3 4 5 5 4 4 4 5 5 4 4 4 4 5 5 7 9 8 7 7 8 8 8 8 7 8 10 13 16 17 18 20 20 18 19 19 19 19 20 21 24 26 22 18 15 11 10 9 7 7 7 7 7 6 7 6 6 7 7 7 7 9 10 13 17 18 19 18 18 20 22 23 23 25 28
3 3 3 4 4 2 4 6 5 4 3 3 5 5 5 4 4 3 5 5 5 5 3 2 5 6 8 11 12 10 6 6 9 10 8 7 11 15 18 19 17 17 19 20 19 20 21 21 21 22 22 25 27 26 21 18 16 14 12 10 9 9 8 8 8 8 6 6 7 7 8 9 10 11 11 13 15 16 17 16 15 17 18 19 21 23
Wind_Direction
142 187 233 215 229 216 198 178 190 228 225 203 212 218 221 222 247 226 195 173 164 169 192 183 176 182 191 196 196 197 198 205 206 204 207 185 174 176 174 179 180 181 188 172 166 168 171 171 166 164 166 165 163 164 169 170 170 169 170 173 174 170 166 163 159 152 145 143 143 135 120 110 110 117 107 97 109 115 99 93 93 91 88 86 87 85
127 192 232 227 229 222 201 183 184 205 239 246 229 242 256 226 245 235 173 166 168 171 184 171 167 186 197 200 200 195 194 207 203 197 203 188 178 177 170 171 168 165 161 154 157 163 167 166 165 165 165 166 165 170 177 177 173 171 172 175 174 169 161 155 157 158 154 146 144 141 128 112 106 115 115 101 99 108 107 100 94 92 85 78 79 83
153 221 238 232 227 224 205 179 176 180 210 256 255 295 301 256 241 131 119 155 175 181 177 168 167 191 203 202 201 196 197 206 201 194 195 185 178 177 174 163 151 150 150 154 157 163 167 164 163 164 165 169 171 174 179 179 175 169 170 174 170 164 155 145 144 145 145 142 137 134 128 116 107 107 109 104 98 98 104 109 103 94 84 78 77 80
208 238 240 235 210 203 235 187 164 166 188 243 285 21 305 313 79 86 81 143 198 195 166 160 158 194 208 207 207 204 204 205 197 193 191 185 181 179 178 163 152 158 160 164 165 165 169 165 163 164 167 172 174 177 180 178 176 173 172 174 171 165 159 151 146 137 135 135 129 126 127 120 112 107 103 103 104 99 98 107 107 92 83 82 79 79
228 242 238 250 206 176 231 204 147 148 222 243 162 167 265 46 76 105 129 225 310 63 147 135 118 211 212 207 213 208 207 206 189 183 186 190 186 175 172 165 161 165 164 167 168 169 171 169 169 168 169 174 176 179 182 180 180 178 174 175 173 167 159 154 152 143 138 138 135 133 134 132 126 120 112 107 108 104 100 104 104 94 87 83 76 77
243 250 221 257 255 179 190 181 155 153 190 244 179 193 188 101 84 85 122 160 32 33 164 131 121 240 239 214 216 206 201 207 183 172 183 190 182 164 164 169 169 169 169 169 170 172 172 171 172 171 171 174 177 181 183 183 185 180 175 175 173 167 161 158 155 150 146 146 147 146 143 145 145 139 126 115 113 113 109 105 101 96 89 83 78 78
254 261 191 226 246 184 177 174 173 159 152 220 212 201 162 94 77 69 86 99 91 183 236 149 139 214 253 230 228 210 195 205 183 173 183 186 178 165 165 171 171 171 173 172 171 170 170 170 171 173 174 176 180 183 183 184 185 180 177 179 177 170 164 161 156 153 151 150 153 152 147 146 147 142 132 122 117 116 117 113 102 93 92 88 81 79
246 262 263 239 203 159 174 176 185 157 136 190 200 191 134 93 83 88 100 104 171 212 303 354 115 133 206 231 232 205 193 206 193 181 186 187 181 171 169 172 172 174 174 171 172 172 172 173 175 177 177 180 184 184 184 185 186 183 181 181 181 175 168 163 160 158 158 158 158 157 151 146 144 140 136 131 123 118 121 119 106 97 99 94 84 83
237 234 259 248 185 190 195 178 178 151 128 189 189 191 137 116 133 165 144 137 117 64 325 307 49 95 240 262 243 192 195 208 203 192 189 188 183 174 173 176 175 175 174 173 175 176 177 177 178 180 179 182 185 184 185 187 186 186 183 181 182 179 174 170 168 169 170 169 164 159 153 146 143 139 137 137 131 123 119 116 111 109 106 98 91 92
245 233 252 247 205 213 199 165 168 160 135 161 157 124 76 110 132 130 121 113 66 58 266 264 117 111 269 283 183 177 203 208 203 197 194 192 185 175 175 179 175 174 175 177 177 176 178 179 180 180 179 181 184 184 187 188 188 187 185 183 184 182 178 176 177 176 173 169 166 163 155 147 146 144 141 140 136 127 119 113 116 118 113 107 102 99
263 270 270 245 220 202 162 147 160 154 130 120 109 73 59 58 48 52 64 79 68 345 261 236 171 125 284 277 207 194 208 194 187 195 201 195 186 176 176 178 174 174 177 178 178 177 178 178 177 176 177 180 183 185 186 189 190 188 185 185 186 185 181 178 179 176 171 168 168 168 161 154 152 150 149 146 140 135 127 118 119 122 120 117 110 103
300 308 295 251 230 137 111 98 77 110 116 106 93 95 90 22 12 32 2 35 87 263 266 236 153 118 174 260 233 230 231 189 179 187 191 190 187 180 177 177 176 175 174 173 173 174 171 170 172 174 176 179 181 183 185 189 190 187 186 186 187 188 183 180 180 178 174 172 172 174 173 167 160 155 156 153 146 143 140 132 129 130 127 124 118 110
311 281 270 286 270 127 110 93 44 32 68 96 109 105 94 34 6 18 319 358 174 244 267 278 100 119 227 247 230 226 226 201 189 184 180 181 183 181 178 176 175 172 171 171 171 173 169 167 173 175 176 178 181 183 185 188 187 185 185 186 189 191 185 181 182 180 179 177 176 178 177 171 165 163 162 157 153 150 147 144 140 138 135 129 123 119
315 301 304 325 317 121 121 126 123 322 157 144 151 134 112 112 85 254 255 289 256 251 282 13 39 265 284 272 230 212 205 198 193 185 177 177 177 178 177 172 171 170 171 172 172 173 174 173 176 176 175 178 182 184 185 186 185 184 185 187 191 192 185 184 187 185 183 181 176 177 177 172 167 167 166 161 159 156 152 149 144 140 136 128 122 120
249 309 302 277 294 37 135 151 162 172 169 171 166 131 130 149 147 189 210 183 233 253 312 0 355 196 227 266 241 213 195 184 183 180 171 172 174 172 168 165 166 170 172 172 172 174 177 176 176 176 176 178 181 184 185 185 184 184 185 188 192 192 186 187 191 189 187 184 178 175 177 177 175 171 168 165 162 159 156 153 150 146 141 134 129 123
135 263 260 252 232 181 192 173 150 140 141 268 143 112 144 179 144 142 176 171 178 198 313 314 231 208 216 267 283 185 160 173 175 165 149 155 163 157 157 161 165 169 170 170 172 174 176 175 176 177 177 179 181 182 184 185 185 186 187 188 193 194 190 189 192 192 189 185 181 176 173 178 182 178 171 168 166 163 162 159 156 156 153 149 141 129
90 269 272 291 278 202 193 179 156 151 156 291 107 150 218 162 122 114 147 81 69 93 266 283 275 294 318 307 315 98 134 167 170 158 145 145 153 154 159 163 163 167 169 170 172 173 174 175 177 179 179 179 180 181 184 187 188 189 190 190 193 196 193 191 194 194 190 186 184 181 177 177 181 178 173 170 171 170 168 167 163 159 158 157 150 136
159 261 279 289 284 272 197 130 152 172 141 122 181 194 178 60 82 104 111 16 40 103 277 321 300 302 5 322 315 88 126 171 178 163 143 142 155 159 162 166 166 168 168 170 172 171 174 176 177 179 180 180 181 183 186 188 191 193 194 193 194 196 195 193 195 195 192 190 187 185 184 181 179 178 175 172 174 176 174 173 171 167 169 170 162 143
152 241 290 274 260 288 9 79 37 301 141 130 174 163 116 86 81 82 110 134 88 125 292 319 317 296 184 245 305 83 133 192 191 171 148 153 163 162 163 167 165 163 164 169 172 173 176 177 177 179 180 181 182 184 187 189 191 194 196 197 197 199 197 194 195 195 195 195 192 190 189 185 180 178 177 176 178 181 180 177 175 176 179 174 164 148
141 149 284 279 249 303 4 50 81 268 305 23 91 129 97 127 156 139 140 161 135 135 254 324 346 301 223 230 223 163 177 192 190 184 168 167 168 163 164 166 164 165 171 174 175 177 178 176 178 179 179 181 182 185 188 189 191 194 196 197 198 201 199 196 197 197 198 198 196 193 191 188 186 183 182 183 182 184 184 180 179 182 179 169 163 154
95 126 231 285 318 53 11 312 203 193 202 39 112 150 21 73 111 117 132 116 119 136 177 100 10 282 248 218 206 179 156 168 185 189 179 172 169 166 165 167 170 173 176 178 177 178 178 175 177 178 179 181 181 184 187 189 191 194 196 196 197 199 199 198 199 200 200 200 197 195 193 192 192 191 191 191 189 187 185 185 186 185 179 173 172 162
118 146 179 285 332 107 214 276 283 185 159 147 147 137 131 136 109 93 60 314 84 125 167 139 143 270 261 237 228 181 149 156 169 183 185 174 170 171 171 172 174 175 178 181 177 176 176 175 176 176 177 180 180 182 185 188 191 193 195 197 197 198 199 200 201 201 202 202 199 198 196 194 195 195 195 193 192 194 193 192 191 186 182 182 180 170
140 106 105 269 260 206 203 356 3 16 102 110 104 97 114 133 110 117 172 251 75 87 129 113 112 262 268 294 304 281 186 125 130 151 180 177 172 176 178 177 177 177 178 179 175 174 176 175 175 176 177 181 183 183 183 186 190 193 195 196 196 198 200 202 203 202 203 204 204 202 200 199 198 198 198 195 194 197 197 193 191 189 188 186 180 175
88 70 57 304 291 306 349 19 11 7 49 60 15 56 101 116 125 139 165 160 117 111 118 87 84 261 281 308 316 328 342 29 127 158 165 163 179 186 183 179 180 179 175 174 174 174 173 173 173 176 180 183 186 186 185 185 190 193 194 195 197 199 201 202 204 204 205 207 208 206 204 204 202 200 200 198 197 199 197 194 192 192 193 189 183 180
36 68 87 48 356 351 355 0 358 355 23 52 322 334 75 90 81 87 96 79 79 207 145 112 186 245 275 318 346 4 6 353 295 214 179 162 160 183 187 180 178 175 170 172 173 170 170 174 176 180 185 187 189 190 188 187 189 192 194 195 196 199 201 203 204 205 206 209 210 209 208 208 206 204 203 200 200 200 198 196 196 197 198 194 189 187
101 130 113 102 113 112 49 329 309 309 358 36 319 321 65 86 79 87 80 69 84 213 120 124 196 253 297 318 345 19 48 65 19 338 178 148 151 170 183 180 172 171 173 174 174 175 177 180 183 185 186 189 191 193 193 192 191 192 194 196 197 199 201 203 204 205 206 209 210 211 212 212 211 209 207 205 204 203 201 199 199 201 201 196 192 191
95 52 103 130 151 172 182 226 243 194 99 56 279 296 26 79 93 99 88 93 165 152 62 206 192 35 338 319 353 37 55 70 49 20 41 86 160 171 175 180 176 173 178 177 175 177 180 183 187 188 189 192 193 193 195 196 196 195 195 197 199 201 202 203 205 205 206 208 210 212 214 214 214 213 211 211 210 207 204 201 200 202 202 199 197 194
94 19 4 117 134 189 189 216 285 105 98 144 198 298 358 18 65 93 128 210 157 107 334 256 195 77 325 310 354 26 50 95 92 306 24 108 158 159 157 175 181 178 177 176 177 181 183 187 190 188 191 194 195 195 196 197 199 199 199 200 202 203 204 204 205 206 207 208 209 211 214 216 216 215 214 215 213 209 207 203 201 203 204 202 201 197
108 47 328 108 107 208 146 62 67 90 88 102 112 81 24 331 352 172 198 199 146 128 214 223 136 79 339 322 339 334 286 232 232 246 217 154 152 150 140 157 188 188 179 177 182 187 188 191 191 190 193 195 195 196 196 197 200 201 203 204 204 205 205 205 205 206 207 208 211 213 215 216 217 216 215 216 215 211 208 205 203 205 207 205 203 198
106 127 273 118 84 350 13 54 58 62 66 52 37 20 2 193 198 201 193 172 148 155 193 159 108 75 10 334 327 317 304 292 304 332 13 74 166 167 156 166 186 188 183 185 190 193 195 195 193 191 192 194 196 197 196 198 200 202 204 206 205 206 206 205 206 207 208 210 213 215 216 216 217 217 215 215 216 214 211 208 205 206 209 207 202 198
83 200 258 94 64 334 343 48 45 54 79 60 22 7 1 6 38 46 25 16 78 109 86 90 85 52 348 339 332 332 359 27 28 21 23 23 11 50 112 151 189 196 196 194 193 194 196 196 196 196 195 197 199 198 197 200 202 203 205 206 206 206 206 205 205 207 209 213 215 216 217 217 218 218 216 215 216 216 214 210 208 208 209 206 201 198
67 95 311 58 63 308 319 40 40 55 72 49 17 3 355 4 48 54 33 17 3 21 62 61 61 351 315 330 351 17 33 40 36 26 24 26 27 34 41 38 26 321 257 236 220 210 203 199 198 198 200 202 201 200 201 203 203 204 206 206 207 207 206 205 205 207 210 213 215 216 216 218 218 218 218 217 217 217 216 213 210 209 208 204 200 197
82 100 86 75 84 283 298 12 51 52 54 28 342 332 323 4 91 70 43 22 6 16 82 70 55 257 289 322 5 33 40 41 33 22 19 22 31 39 40 43 51 46 27 4 335 305 260 230 218 210 206 204 203 204 205 204 203 205 207 208 208 207 205 205 206 207 210 212 213 214 216 217 218 218 219 219 218 218 217 214 211 210 209 206 201 198
49 99 141 136 121 225 278 331 46 51 63 249 303 334 25 97 86 73 52 27 16 27 63 68 316 297 307 335 5 24 48 56 45 29 25 23 29 35 33 36 49 57 58 43 4 336 313 287 259 239 227 215 210 210 210 207 206 208 209 209 208 206 205 206 207 208 210 211 211 213 214 215 216 218 220 220 219 218 217 215 213 212 211 206 201 196
124 112 156 123 113 185 286 29 48 19 198 185 197 23 62 91 91 83 64 38 28 26 24 15 349 327 320 324 318 292 122 91 62 41 30 23 23 30 29 25 26 35 45 36 6 339 327 324 283 252 244 235 226 221 216 213 212 212 210 208 206 206 206 206 207 208 210 210 211 212 213 213 215 217 218 219 218 218 218 216 214 212 210 206 202 199
155 139 140 111 107 157 81 70 125 222 225 178 83 28 41 65 70 63 49 31 22 22 18 5 346 331 324 323 320 282 202 149 74 47 30 15 11 17 23 19 14 17 17 359 344 333 334 347 348 286 251 242 238 233 226 221 217 214 211 208 206 207 207 207 208 209 210 210 210 211 212 212 213 214 216 216 216 216 216 215 213 211 208 205 202 201
156 140 116 139 162 135 124 124 174 167 305 321 345 13 19 2 335 20 74 36 15 18 17 5 354 342 331 332 337 307 208 129 54 33 18 9 1 359 10 14 11 9 5 354 346 343 351 3 16 26 22 239 239 243 239 232 224 216 212 209 208 208 207 206 208 209 210 210 211 212 212 212 213 213 214 213 213 214 215 213 211 209 205 202 200 198
127 159 169 183 206 108 110 104 70 130 215 248 284 317 323 307 287 238 132 64 11 12 10 4 1 349 339 343 341 322 197 74 38 356 353 1 354 353 5 10 12 13 10 2 355 351 357 7 17 29 39 42 2 294 264 249 236 220 211 208 207 207 207 208 211 211 211 211 212 212 212 212 213 213 213 212 213 214 214 212 209 206 204 203 200 196
35 43 124 135 150 121 125 142 168 187 212 236 293 311 312 306 290 241 127 55 3 3 3 6 6 356 348 346 342 342 51 77 46 305 332 347 346 355 3 8 16 18 15 12 6 357 358 11 23 30 36 37 31 24 9 279 242 226 220 217 211 206 206 209 211 212 213 215 214 213 213 213 213 214 213 212 213 214 213 210 207 205 203 202 199 195
21 16 62 104 140 145 129 141 182 187 217 279 307 306 301 305 312 147 154 330 347 352 353 6 13 5 358 353 351 16 51 62 14 320 323 324 347 10 4 1 14 21 18 17 13 7 6 19 30 33 33 31 28 32 39 48 65 74 41 296 240 237 237 230 222 217 216 216 216 214 214 214 214 214 214 214 215 215 213 209 205 202 200 198 196 192
16 4 37 118 127 99 106 120 158 274 246 285 305 301 299 317 55 135 182 238 318 340 348 8 20 16 13 14 14 25 35 33 357 326 317 328 8 17 356 347 10 29 26 21 18 15 14 19 27 34 37 33 29 30 37 50 62 64 59 54 43 22 2 334 281 241 225 218 215 214 215 216 215 216 216 217 217 214 210 207 203 199 197 194 191 187
31 3 344 66 72 22 86 109 83 285 268 295 304 301 307 5 124 194 204 221 315 340 0 13 17 18 22 29 28 15 5 357 341 334 336 350 13 15 340 339 7 24 21 19 19 17 14 16 20 27 33 34 35 33 28 39 58 62 60 62 58 45 26 11 355 324 272 237 222 218 217 216 217 218 218 218 216 212 208 205 202 199 195 191 187 181
124 112 317 342 59 48 75 84 103 184 280 315 320 323 358 77 170 215 196 85 353 3 16 9 6 9 15 28 33 15 359 352 346 343 342 345 354 356 341 349 11 17 14 15 15 12 12 15 15 17 24 30 35 38 37 43 52 51 53 60 57 49 41 31 16 354 324 286 256 239 227 221 220 220 220 218 215 209 204 199 196 193 191 187 180 169
114 138 170 281 22 83 117 141 186 197 278 325 358 66 48 44 91 113 50 50 358 9 17 3 357 358 355 1 8 6 0 353 345 339 334 331 332 330 334 353 11 15 13 12 11 9 11 14 12 11 16 24 31 36 40 48 52 48 40 26 15 23 40 53 68 71 330 300 283 265 245 231 227 225 224 221 214 205 196 190 186 183 182 177 164 151
232 152 134 116 45 76 132 170 201 210 273 332 30 87 82 41 31 37 74 93 6 347 358 8 2 352 342 329 311 307 312 307 305 308 310 311 310 314 328 339 352 3 2 2 9 8 3 6 12 11 10 17 28 33 32 34 39 39 26 2 340 333 351 23 45 94 130 7 302 283 263 241 226 221 218 211 198 184 175 172 171 170 168 161 153 150
156 121 107 101 90 66 63 75 169 185 275 320 16 72 91 79 46 37 77 93 290 296 303 306 311 314 320 326 310 273 269 264 256 267 287 300 307 319 331 334 339 348 349 351 360 359 349 351 6 10 9 13 21 27 25 23 25 25 19 12 0 338 315 317 332 333 1 97 241 250 232 191 159 155 158 166 167 165 165 168 169 167 163 159 160 165
52 97 90 102 139 105 56 301 232 208 233 220 160 89 341 179 194 180 152 218 260 279 292 292 292 294 301 322 340 318 308 312 311 302 303 311 317 322 331 334 334 336 339 343 349 349 345 346 351 355 360 6 11 15 15 15 21 24 18 14 12 9 4 352 329 304 285 225 165 168 169 164 155 153 156 164 172 176 179 180 177 172 167 167 171 174
13 93 87 99 124 98 98 167 187 80 309 262 192 174 233 254 255 245 222 228 250 270 278 281 289 296 310 335 348 342 343 351 356 355 353 350 342 337 340 344 340 336 336 338 340 342 344 346 346 345 343 347 354 358 359 3 14 24 26 22 11 4 6 9 359 322 278 230 177 161 161 163 156 150 151 155 164 170 173 176 178 178 181 184 184 181
111 90 96 112 89 62 64 106 75 47 2 325 308 267 243 237 245 268 285 283 276 281 287 293 291 291 326 353 355 2 11 8 3 12 22 19 11 6 1 1 4 5 2 356 350 349 350 350 352 353 350 348 347 341 337 345 357 359 7 21 13 356 352 352 346 336 319 268 203 177 168 166 165 165 163 161 163 169 174 179 184 188 192 194 193 192
78 87 87 97 91 79 214 198 145 104 82 291 275 260 253 230 211 251 294 304 298 290 296 322 338 355 13 16 16 20 22 14 6 14 25 22 11 8 8 8 10 15 17 16 10 4 1 359 359 2 2 359 356 346 328 322 328 330 330 337 337 331 334 337 328 318 307 284 263 255 247 227 209 196 182 174 173 175 178 185 194 198 199 200 201 200
97 128 137 128 130 175 203 194 167 129 143 232 246 248 252 224 197 242 287 291 284 282 287 337 2 18 24 20 23 28 24 16 18 19 20 18 12 11 11 10 8 7 9 11 10 5 1 1 2 5 6 4 3 360 346 327 318 318 317 312 309 312 317 322 319 310 301 290 273 264 264 253 232 214 201 192 186 182 180 181 190 199 206 208 206 205